FW7071 Weather Reports


time (UTC)temp
F
wind
direction
speed
knots
gust
knots
rain 1hr
in
rain 24hr
in
rain mn
in
humidity
%
barometer
mb
20260903224726 83 232 1.7 1.7 0.00 1.04 1.04 79 1014.6
20260903224221 84 223 1.7 1.7 0.00 1.04 1.04 79 1014.5
20260903223716 84 244 1.7 1.7 0.00 1.04 1.04 78 1014.7
20260903223215 85 302 1.7 1.7 0.00 1.04 1.04 78 1014.6
20260903222709 85 223 2.6 4.3 0.00 1.04 1.04 76 1014.5
20260903222209 86 238 2.6 2.6 0.00 1.04 1.04 76 1014.5
20260903221703 86 256 0.9 1.7 0.00 1.04 1.04 75 1014.8
20260903221202 86 266 3.5 5.2 0.00 1.04 1.04 75 1014.6
20260903220700 86 306 1.7 2.6 0.00 1.04 1.04 75 1014.4
20260903220155 86 248 1.7 1.7 0.00 1.04 1.04 75 1014.6
20260903215654 87 266 2.6 4.3 0.00 1.04 1.04 75 1014.6
20260903215150 87 290 1.7 2.6 0.00 1.04 1.04 75 1014.6
20260903214648 86 221 0.9 0.9 0.00 1.04 1.04 76 1014.2
20260903214144 87 240 2.6 4.3 0.00 1.04 1.04 74 1014.2
20260903213639 87 251 0.9 1.7 0.00 1.04 1.04 75 1014.2
20260903213135 86 278 2.6 2.6 0.00 1.04 1.04 74 1014.0
20260903212631 87 223 0.0 0.9 0.00 1.04 1.04 75 1014.1
20260903212126 88 285 3.5 4.3 0.00 1.04 1.04 72 1014.0
20260903211625 87 249 0.0 0.9 0.00 1.04 1.04 74 1013.9
20260903211123 86 260 0.9 0.9 0.00 1.04 1.04 75 1013.8
20260903210618 87 244 0.9 1.7 0.00 1.04 1.04 75 1014.0
20260903210114 87 278 1.7 1.7 0.00 1.04 1.04 74 1013.9
20260903205613 87 250 2.6 2.6 0.00 1.04 1.04 74 1014.3
20260903205112 88 236 2.6 2.6 0.00 1.04 1.04 74 1014.1
20260903204609 88 216 0.9 0.9 0.00 1.04 1.04 72 1014.4
20260903204104 89 314 3.5 5.2 0.00 1.04 1.04 71 1014.3
20260903203600 89 267 2.6 4.3 0.00 1.04 1.04 74 1014.3
20260903203059 88 296 1.7 1.7 0.00 1.04 1.04 71 1014.3
20260903202556 88 257 1.7 2.6 0.00 1.04 1.04 72 1014.3
20260903202051 88 291 2.6 2.6 0.00 1.04 1.04 72 1014.7
20260903201551 87 257 2.6 2.6 0.00 1.04 1.04 74 1014.6
20260903201050 87 250 5.2 6.1 0.00 1.04 1.04 73 1014.5
20260903200546 87 293 2.6 4.3 0.00 1.04 1.04 74 1014.6
20260903200040 86 255 3.5 5.2 0.00 1.04 1.04 75 1014.6
20260903195536 86 293 3.5 4.3 0.00 1.04 1.04 75 1014.6
20260903195032 86 272 1.7 2.6 0.00 1.04 1.04 74 1014.6
20260903194527 86 270 2.6 4.3 0.00 1.04 1.04 74 1014.7
20260903194022 86 308 1.7 2.6 0.00 1.04 1.04 75 1014.9
20260903193519 86 298 3.5 4.3 0.00 1.04 1.04 74 1014.8
20260903193014 86 208 1.7 1.7 0.00 1.04 1.04 74 1014.7
20260903192510 87 239 0.9 1.7 0.00 1.04 1.04 74 1014.9
20260903192004 86 223 3.5 4.3 0.00 1.04 1.04 75 1014.9
20260903191500 87 273 3.5 5.2 0.00 1.04 1.04 74 1015.1
20260903190955 87 273 1.7 1.7 0.00 1.04 1.04 75 1015.1
20260903190454 87 227 0.9 0.9 0.00 1.04 1.04 74 1015.3
20260903185948 87 218 4.3 5.2 0.00 1.04 1.04 74 1015.3
20260903185445 86 295 2.6 4.3 0.00 1.04 1.04 75 1015.3
20260903184944 87 295 2.6 4.3 0.00 1.04 1.04 74 1015.4
20260903184442 86 283 4.3 6.1 0.00 1.04 1.04 76 1015.3
20260903183936 86 246 3.5 4.3 0.00 1.04 1.04 76 1015.5
20260903183430 86 279 3.5 6.1 0.00 1.04 1.04 75 1015.4
20260903182930 85 230 2.6 4.3 0.00 1.04 1.04 77 1015.5
20260903182428 85 246 4.3 6.1 0.00 1.04 1.04 76 1015.4
20260903181924 85 307 4.3 5.2 0.00 1.04 1.04 77 1015.5
20260903181418 85 321 7.8 8.7 0.00 1.04 1.04 77 1015.7
20260903180918 85 309 7.0 8.7 0.00 1.04 1.04 77 1015.7
20260903180413 85 216 3.5 5.2 0.00 1.04 1.04 78 1015.8
20260903175912 85 313 5.2 7.0 0.00 1.04 1.04 77 1015.9
20260903175407 85 238 2.6 2.6 0.00 1.04 1.04 78 1016.1
20260903174901 84 286 2.6 2.6 0.00 1.04 1.04 78 1015.7
20260903174356 84 249 3.5 4.3 0.00 1.04 1.04 78 1015.7
20260903173857 83 307 4.3 5.2 0.00 1.04 1.04 78 1016.0
20260903173352 84 259 5.2 7.0 0.00 1.04 1.04 78 1016.0
20260903172848 83 255 4.3 7.0 0.00 1.04 1.04 78 1016.0
20260903172342 84 275 7.0 7.8 0.00 1.04 1.04 78 1016.4
20260903171838 83 296 6.1 7.8 0.00 1.04 1.04 78 1016.2
20260903171333 84 290 7.0 8.7 0.00 1.04 1.04 79 1016.3
20260903170832 84 268 2.6 4.3 0.00 1.04 1.04 79 1016.1
20260903170328 83 286 1.7 2.6 0.00 1.04 1.04 80 1016.4
20260903165826 82 231 2.6 2.6 0.00 1.04 1.04 80 1016.4
20260903165325 82 328 6.1 6.1 0.00 1.04 1.04 79 1016.7
20260903164820 82 261 2.6 4.3 0.00 1.04 1.04 81 1016.9
20260903164316 82 40 2.6 4.3 0.00 1.04 1.04 80 1016.9
20260903163815 82 266 5.2 7.0 0.00 1.04 1.04 80 1017.1
20260903163312 82 222 6.1 8.7 0.00 1.04 1.04 79 1016.9
20260903162807 82 228 3.5 4.3 0.00 1.04 1.04 81 1017.1
20260903162306 82 307 8.7 11.3 0.00 1.04 1.04 83 1016.9
20260903161759 81 302 4.3 6.1 0.00 1.04 1.04 85 1017.1
20260903161254 80 239 1.7 2.6 0.00 1.04 1.04 86 1017.2
20260903160749 80 190 0.9 1.7 0.00 1.04 1.04 88 1017.3
20260903160248 80 222 2.6 2.6 0.00 1.04 1.04 89 1017.3
20260903155747 80 258 4.3 5.2 0.00 1.04 1.04 88 1017.7
20260903155242 79 274 2.6 2.6 0.00 1.04 1.04 90 1017.7
20260903154738 79 259 4.3 6.1 0.00 1.04 1.04 91 1018.1
20260903154234 78 252 2.6 2.6 0.00 1.04 1.04 92 1018.1
20260903153729 78 247 3.5 4.3 0.00 1.04 1.04 92 1018.2
20260903153225 78 298 3.5 4.3 0.00 1.04 1.04 93 1018.1
20260903152721 78 299 2.6 2.6 0.00 1.04 1.04 94 1018.1
20260903152217 77 245 1.7 2.6 0.00 1.04 1.04 94 1018.3
20260903151716 77 314 5.2 7.8 0.00 1.04 1.04 94 1017.9
20260903151212 77 313 4.3 6.1 0.00 1.04 1.04 94 1017.9
20260903150707 78 316 4.3 6.1 0.00 1.04 1.04 93 1017.9
20260903150202 78 282 7.0 8.7 0.00 1.04 1.04 93 1017.8
20260903145701 77 229 4.3 5.2 0.00 1.04 1.04 94 1018.2
20260903145157 77 282 4.3 5.2 0.00 1.04 1.04 95 1018.1
20260903144656 77 219 1.7 1.7 0.00 1.04 1.04 95 1018.2
20260903144152 76 267 5.2 6.1 0.00 1.04 1.04 95 1018.6
20260903143648 76 273 2.6 5.2 0.00 1.04 1.04 95 1018.1
20260903143143 76 309 3.5 4.3 0.00 1.04 1.04 96 1018.3
20260903142639 76 291 3.5 5.2 0.00 1.04 1.04 95 1018.3
20260903142136 76 312 3.5 4.3 0.00 1.04 1.04 95 1017.9
20260903141630 76 169 0.9 0.9 0.00 1.04 1.04 96 1017.9
20260903141125 75 167 1.7 1.7 0.00 1.04 1.04 96 1018.0
20260903140622 75 246 2.6 2.6 0.00 1.04 1.04 97 1018.0
20260903140117 75 228 1.7 1.7 0.00 1.04 1.04 97 1018.0
20260903135612 75 284 3.5 4.3 0.00 1.04 1.04 97 1017.8
20260903135107 74 297 5.2 6.1 0.00 1.04 1.04 97 1017.6
20260903134605 74 318 0.9 1.7 0.00 1.04 1.04 98 1017.5
20260903134101 74 241 2.6 2.6 0.00 1.04 1.04 98 1017.7
20260903133559 73 258 2.6 2.6 0.00 1.04 1.04 99 1017.7
20260903133055 73 281 0.9 1.7 0.00 1.04 1.04 99 1017.4
20260903132550 73 242 1.7 2.6 0.00 1.04 1.04 99 1017.4
20260903132044 73 301 1.7 1.7 0.00 1.04 1.04 99 1017.4
20260903131544 72 182 0.0 0.9 0.00 1.04 1.04 99 1017.4
20260903131038 72 314 1.7 1.7 0.00 1.04 1.04 99 1017.3
20260903130532 72 271 1.7 1.7 0.00 1.04 1.04 99 1017.5
20260903130033 71 315 2.6 2.6 0.00 1.04 1.04 99 1017.4
20260903125531 71 242 1.7 2.6 0.00 1.04 1.04 99 1017.4
20260903125027 71 308 2.6 4.3 0.00 1.04 1.04 99 1017.5
20260903124526 70 303 1.7 1.7 0.00 1.04 1.04 99 1017.3
20260903124021 70 291 0.9 0.9 0.00 1.04 1.04 99 1017.7
20260903123520 70 246 1.7 1.7 0.00 1.04 1.04 99 1017.7
20260903123020 69 259 2.6 4.3 0.00 1.04 1.04 99 1017.6
20260903122514 69 246 0.9 1.7 0.00 1.04 1.04 99 1017.5
20260903122013 69 252 3.5 5.2 0.00 1.04 1.04 99 1017.6
20260903121509 69 219 1.7 1.7 0.00 1.04 1.04 99 1017.5
20260903121005 69 224 2.6 4.3 0.00 1.04 1.04 99 1017.6
20260903120503 69 296 0.9 0.9 0.00 1.04 1.04 99 1017.5
20260903120002 69 317 1.7 1.7 0.00 1.04 1.04 99 1017.4
20260903115456 69 278 2.6 5.2 0.00 1.04 1.04 99 1017.2
20260903114955 69 269 2.6 2.6 0.00 1.04 1.04 99 1017.3
20260903114451 68 332 1.7 1.7 0.00 1.04 1.04 99 1016.8
20260903113946 68 112 0.9 1.7 0.00 1.04 1.04 99 1016.3
20260903113442 68 259 4.3 6.1 0.00 1.04 1.04 99 1016.9
20260903112937 68 214 2.6 2.6 0.00 1.04 1.04 99 1016.1
20260903112433 68 200 0.0 0.0 0.00 1.04 1.04 99 1017.1
20260903111932 68 239 0.9 1.7 0.00 1.04 1.04 99 1017.3
20260903111427 68 217 0.9 0.9 0.00 1.04 1.04 99 1017.3
20260903110923 68 251 0.0 0.9 0.00 1.04 1.04 99 1017.8
20260903110419 68 197 0.0 0.0 0.00 1.04 1.04 99 1017.7
20260903105919 68 283 1.7 2.6 0.00 1.04 1.04 99 1017.9
20260903105415 68 218 0.0 0.9 0.00 1.04 1.04 99 1018.1
20260903104914 68 199 0.0 0.9 0.00 1.04 1.04 99 1018.0
20260903104408 68 232 0.9 1.7 0.00 1.04 1.04 99 1018.5
20260903103906 68 285 1.7 1.7 0.00 1.04 1.04 99 1018.7
20260903103401 68 240 1.7 2.6 0.00 1.04 1.04 99 1018.8
20260903102856 68 275 1.7 1.7 0.00 1.04 1.04 99 1018.7
20260903102351 68 312 2.6 5.2 0.00 1.04 1.04 99 1018.7
20260903101850 68 275 2.6 2.6 0.00 1.04 1.04 99 1018.6
20260903101345 68 256 2.6 2.6 0.00 1.04 1.04 99 1018.7
20260903100835 68 235 2.6 2.6 0.00 1.04 1.04 99 1018.4
20260903100335 68 240 3.5 5.2 0.00 1.04 1.04 99 1018.2
20260903095827 68 281 2.6 2.6 0.00 1.04 1.04 99 1018.3
20260903095326 68 218 1.7 1.7 0.00 1.04 1.04 99 1018.3
20260903094822 68 299 0.9 1.7 0.00 1.04 1.04 99 1018.4
20260903094317 68 225 1.7 2.6 0.00 1.04 1.04 99 1018.1
20260903093813 68 223 0.9 1.7 0.00 1.04 1.04 99 1017.9
20260903093308 67 211 0.0 0.9 0.05 1.04 1.04 99 1018.1
20260903092807 67 253 3.5 5.2 0.12 1.04 1.04 99 1018.0
20260903092306 67 82 0.9 0.9 0.05 1.02 1.02 99 1017.4
20260903091802 67 239 1.7 2.6 0.07 1.01 1.01 99 1017.9
20260903091255 67 208 0.9 1.7 0.19 1.01 1.01 99 1018.1
20260903090752 67 143 0.9 1.7 0.24 0.99 0.99 99 1018.1
20260903090250 67 115 0.9 0.9 0.17 0.97 0.97 99 1018.4
20260903085749 67 200 0.0 0.9 0.17 0.95 0.95 99 1018.7
20260903085244 68 203 0.0 0.9 0.17 0.93 0.93 99 1018.4
20260903084742 68 201 1.7 1.7 0.19 0.92 0.92 99 1018.3
20260903084237 68 219 1.7 2.6 0.19 0.90 0.90 99 1018.6
20260903083733 68 180 0.0 0.9 0.19 0.88 0.88 99 1018.5
20260903083233 68 164 0.0 0.0 0.12 0.87 0.87 99 1018.3
20260903082732 68 165 0.0 0.0 0.12 0.85 0.85 99 1018.5
20260903082228 68 222 0.9 0.9 0.24 0.85 0.85 99 1019.2
20260903081728 68 166 0.9 1.7 0.31 0.83 0.83 99 1019.2
20260903081223 68 234 0.0 0.9 0.42 0.81 0.81 99 1020.0
20260903080720 68 287 0.9 1.7 0.31 0.77 0.77 99 1020.2
20260903080217 68 239 2.6 2.6 0.05 0.73 0.73 99 1019.6
20260903075716 68 177 0.0 0.0 0.07 0.72 0.72 99 1019.2
20260903075212 68 111 0.0 0.9 0.24 0.72 0.72 99 1019.6
20260903074710 68 294 1.7 2.6 0.66 0.71 0.71 99 1020.0
20260903074206 68 81 0.0 0.9 0.50 0.66 0.66 99 1020.0
20260903073701 68 301 2.6 4.3 0.24 0.60 0.60 99 1020.5
20260903073156 68 146 0.0 0.9 0.17 0.58 0.58 99 1019.9
20260903072652 68 179 0.0 0.0 0.05 0.56 0.56 99 1019.3
20260903072148 68 284 0.0 0.0 0.00 0.55 0.55 99 1019.2
20260903071644 68 273 0.9 0.9 0.00 0.55 0.55 99 1019.4
20260903071140 68 212 0.9 0.9 0.00 0.55 0.55 99 1019.2
20260903070639 68 220 0.0 0.9 0.00 0.55 0.55 99 1019.2
20260903070136 68 222 0.9 0.9 0.00 0.55 0.55 99 1019.0
20260903065635 68 191 0.0 0.9 0.00 0.55 0.55 99 1018.9
20260903065130 68 185 0.0 0.0 0.00 0.55 0.55 99 1019.0
20260903064629 68 169 0.0 0.0 0.00 0.55 0.55 99 1019.0
20260903064125 68 209 0.0 0.0 0.00 0.55 0.55 99 1019.2
20260903063620 68 223 0.9 0.9 0.00 0.55 0.55 99 1019.3
20260903063115 68 298 0.0 0.0 0.00 0.55 0.55 99 1019.3
20260903062611 68 281 0.0 0.0 0.00 0.55 0.55 99 1019.3
20260903062106 68 290 0.9 0.9 0.00 0.55 0.55 99 1019.3
20260903061601 68 110 0.0 0.9 0.00 0.55 0.55 99 1019.1
20260903061101 68 143 0.0 0.0 0.00 0.55 0.55 99 1018.9
20260903060600 68 103 0.0 0.9 0.07 0.55 0.55 99 1019.1
20260903060056 68 157 0.0 0.0 0.19 0.55 0.55 99 1019.1
20260903055553 68 144 0.9 0.9 0.17 0.54 0.54 99 1019.4
20260903055052 68 101 0.0 0.9 0.12 0.52 0.52 99 1019.1
20260903054547 68 88 1.7 2.6 0.26 0.51 0.51 99 1018.3
20260903054043 68 126 1.7 2.6 1.13 0.50 0.50 99 1018.4
20260903053538 68 129 3.5 4.3 1.51 0.46 0.46 99 1018.4
20260903053034 69 195 0.0 0.0 1.06 0.30 0.30 99 1020.5
20260903052530 69 111 0.9 1.7 0.59 0.19 0.19 99 1020.7
20260903052026 69 89 2.6 4.3 0.24 0.11 0.11 99 1021.0
20260903051525 69 322 1.7 2.6 0.24 0.09 0.09 99 1020.8
20260903051021 69 97 0.9 0.9 0.24 0.07 0.07 99 1021.0
20260903050520 69 40 0.9 0.9 0.12 0.04 0.04 99 1020.8
20260903050016 69 104 0.0 0.0 0.12 0.03 0.03 99 1020.4
20260903045510 69 68 0.9 0.9 0.05 0.02 0.02 99 1020.4
20260903045007 69 100 0.0 0.0 0.00 0.01 0.01 99 1020.7
20260903044502 70 271 0.9 0.9 0.00 0.01 0.01 99 1020.5
20260903043958 70 53 2.6 2.6 0.00 0.01 0.01 99 1020.4
20260903043453 70 116 0.9 0.9 0.00 0.01 0.01 99 1020.1
20260903042951 70 156 0.0 0.0 0.07 0.01 0.01 99 1020.0
20260903042447 70 75 0.9 0.9 0.07 0.01 0.01 99 1019.7
20260903041943 70 107 0.9 0.9 0.00 0.00 0.00 99 1019.7
20260903041439 70 93 0.0 0.0 0.00 0.00 0.00 99 1020.0
20260903040935 70 61 0.9 0.9 0.00 0.00 0.00 99 1020.2
20260903040433 70 71 0.9 0.9 0.00 0.00 0.00 99 1020.0
20260903035930 70 75 0.0 0.0 0.00 0.07 0.07 99 1020.2
20260903035425 70 76 0.9 0.9 0.00 0.07 0.07 99 1020.0
20260903034920 70 96 0.9 0.9 0.00 0.07 0.07 99 1020.0
20260903034415 70 131 0.0 0.0 0.00 0.07 0.07 99 1020.4
20260903033910 70 79 0.9 0.9 0.00 0.07 0.07 99 1020.6
20260903033405 70 76 0.0 0.0 0.00 0.07 0.07 99 1020.6
20260903032905 70 132 0.0 0.9 0.00 0.07 0.07 99 1020.3
20260903032401 70 159 0.0 0.0 0.00 0.07 0.07 99 1020.5
20260903031856 70 131 0.9 0.9 0.00 0.07 0.07 99 1020.1
20260903031355 70 131 0.0 0.0 0.00 0.07 0.07 99 1020.1
20260903030851 70 127 0.0 0.0 0.00 0.07 0.07 99 1019.9
20260903030347 70 164 0.0 0.0 0.00 0.07 0.07 99 1020.2
20260903025843 70 249 0.0 0.0 0.00 0.07 0.07 99 1020.1
20260903025338 70 297 1.7 1.7 0.00 0.07 0.07 99 1020.2
20260903024838 70 187 0.0 0.9 0.00 0.07 0.07 99 1019.9
20260903024332 70 152 0.0 0.0 0.00 0.07 0.07 99 1020.1
20260903023827 70 142 0.0 0.0 0.00 0.07 0.07 99 1019.7
20260903023323 70 141 0.0 0.0 0.00 0.07 0.07 99 1020.2
20260903022818 70 146 0.0 0.0 0.00 0.07 0.07 99 1020.1
20260903022311 70 91 0.0 0.9 0.00 0.07 0.07 99 1020.3
20260903021811 70 160 0.0 0.0 0.00 0.07 0.07 99 1020.3
20260903021307 70 119 0.0 0.0 0.00 0.07 0.07 99 1020.2
20260903020806 70 126 0.0 0.0 0.00 0.07 0.07 99 1020.1
20260903020301 70 143 0.0 0.0 0.00 0.07 0.07 99 1020.0
20260903015756 70 142 0.0 0.0 0.00 0.07 0.07 99 1019.9
20260903015252 70 153 0.0 0.0 0.00 0.07 0.07 99 1020.0
20260903014747 70 173 0.0 0.0 0.00 0.07 0.07 99 1019.9
20260903014246 70 141 0.0 0.0 0.00 0.07 0.07 99 1020.0
20260903013742 70 124 0.0 0.9 0.00 0.07 0.07 99 1019.8
20260903013241 70 164 0.0 0.0 0.00 0.07 0.07 99 1019.9
20260903012739 70 132 0.0 0.0 0.00 0.07 0.07 99 1020.0
20260903012234 70 102 0.0 0.9 0.00 0.07 0.07 99 1019.8
20260903011728 70 115 0.0 0.0 0.00 0.07 0.07 99 1019.8
20260903011222 70 113 0.9 0.9 0.00 0.07 0.07 99 1020.0
20260903010717 70 140 0.0 0.0 0.00 0.07 0.07 99 1019.9
20260903010217 70 128 0.9 0.9 0.00 0.07 0.07 99 1020.0
20260903005716 70 121 0.0 0.0 0.00 0.07 0.07 99 1020.4
20260903005211 70 112 0.0 0.9 0.00 0.07 0.07 99 1020.3
20260903004708 70 71 0.0 0.0 0.00 0.07 0.07 99 1020.3
20260903004203 70 93 0.9 0.9 0.00 0.07 0.07 99 1020.3
20260903003658 70 88 0.9 0.9 0.00 0.07 0.07 99 1020.1
20260903003153 70 120 0.0 0.0 0.00 0.07 0.07 99 1020.2
20260903002648 70 121 0.0 0.0 0.00 0.07 0.07 99 1020.1
20260903002142 70 103 0.0 0.9 0.00 0.07 0.07 99 1019.9
20260903001637 70 32 0.9 1.7 0.00 0.07 0.07 99 1019.9
20260903001136 70 58 0.9 0.9 0.00 0.07 0.07 99 1019.9
20260903000627 70 109 0.9 0.9 0.00 0.07 0.07 99 1019.5
20260903000126 70 98 0.9 0.9 0.00 0.07 0.07 99 1019.6
20260902235625 70 131 0.0 0.0 0.00 0.07 0.07 99 1019.8
20260902235120 70 117 0.9 0.9 0.00 0.07 0.07 99 1019.7
20260902234614 70 50 1.7 1.7 0.00 0.07 0.07 99 1019.7
20260902234113 70 89 1.7 2.6 0.00 0.07 0.07 99 1019.3
20260902233608 70 113 0.9 1.7 0.00 0.07 0.07 99 1019.5
20260902233102 70 126 0.0 0.0 0.00 0.07 0.07 99 1019.7
20260902232602 70 65 1.7 1.7 0.00 0.07 0.07 99 1019.7
20260902232056 70 87 0.9 1.7 0.00 0.07 0.07 99 1019.6
20260902231556 70 80 0.9 0.9 0.00 0.07 0.07 99 1019.7
20260902231051 70 74 0.9 0.9 0.00 0.07 0.07 99 1019.6
20260902230551 70 138 0.0 0.0 0.00 0.07 0.07 99 1020.0
20260902230050 70 26 1.7 1.7 0.00 0.07 0.07 99 1019.7
20260902225545 71 96 4.3 6.1 0.00 0.07 0.07 99 1019.7
20260902225044 71 123 0.9 0.9 0.00 0.07 0.07 99 1019.7